Regional Weather Roundup
Issued by NWS

Home | Current Version | Previous Version | Text Only | Print | Product List | Glossary Off
Versions: 1 2 3 4 5 6 7 8 9 10 11 12 13 14 15 16 17 18 19 20 21 22 23 24 25 26 27 28 29 30 31 32 33 34 35 36 37 38 39 40 41 42 43 44 45 46 47 48 49 50

419
ASUS44 KLIX 201710
RWRLA
LOUISIANA WEATHER ROUNDUP
NATIONAL WEATHER SERVICE NEW ORLEANS LA
1200 PM CDT MON OCT 20 2014

NOTE: "FAIR" INDICATES FEW OR NO CLOUDS BELOW 12,000 FEET WITH NO
      SIGNIFICANT WEATHER AND/OR OBSTRUCTIONS TO VISIBILITY.
      SKY/WX - SKY CONDITION AND SIGNIFICANT WEATHER.
      TMP - AIR TEMPERATURE.    DP   - DEWPOINT TEMPERATURE.
      RH  - RELATIVE HUMIDITY.  PRES - PRESSURE.
      HX  - HEAT INDEX.         WCI  - WIND CHILL INDEX.

*  THESE STATIONS ARE NOT NWS OR FAA STATIONS AND ARE NOT UNDER
   NWS QUALITY CONTROL.

LAZ040-048-061>063-065-066-069-201800-
SOUTHEAST LOUISIANA

CITY           SKY/WX    TMP DP  RH WIND       PRES   REMARKS
N.O. AUDUBON     N/A     79  60  53 MISG        N/A
N.O. INTL ARPT MOSUNNY   76  54  46 VRB6      30.06F
N.O. LAKEFRONT SUNNY     74  55  51 NE9       30.07F
N.O. DOWNTOWN* FAIR      75  55  50 E5        30.06F
SLIDELL        SUNNY     76  53  44 N6        30.06F
BATON ROUGE      N/A     75  52  44 N3        30.07F
BOOTHVILLE     MOSUNNY   79  63  57 NE6       30.05S
BELLE CHASSE   PTSUNNY   77  60  55 E7        30.05F
BOGALUSA*        N/A     74  49  40 CALM      30.09F
NEW ROADS*     FAIR      73  53  50 CALM      30.08F
GONZALES*      FAIR      75  57  53 CALM      30.06F
HAMMOND*       SUNNY     77  46  33 CALM      30.08F
HOUMA*         MOSUNNY   79  63  57 N5        30.05F
PORT FOURCHON* SUNNY     79  61  53 E8        30.07F

$$

LAZ041-044-053-054-201800-
SOUTHWEST LOUISIANA

CITY           SKY/WX    TMP DP  RH WIND       PRES   REMARKS
LAKE CHARLES   SUNNY     75  58  55 E8        30.06F
LAFAYETTE      SUNNY     75  57  53 NE6       30.07S
PATTERSON      NOT AVBL
SALT POINT       N/A     77  60  55 SE6       30.05F
NEW IBERIA     SUNNY     78  57  48 N7        30.07F
CHENAULT AIRPK MOSUNNY   73  57  56 NE3       30.07S

$$

LAZ027-028-201800-
CENTRAL LOUISIANA

CITY           SKY/WX    TMP DP  RH WIND       PRES   REMARKS
FORT POLK      SUNNY     73  51  45 VRB2      30.07F
ALEXANDRIA INT SUNNY     73  50  44 N5        30.07F
ALEXANDRIA     SUNNY     73  53  49 VRB5      30.08F

$$

LAZ001-002-201800-
NORTHWEST LOUISIANA

CITY           SKY/WX    TMP DP  RH WIND       PRES   REMARKS
SHREVEPORT     MOSUNNY   71  51  49 N3        30.10F
BARKSDALE AFB  SUNNY     69  49  48 VRB3      30.11F
DTN SHREVEPORT SUNNY     69  50  50 CALM      30.10F

$$

LAZ014-016-201800-
NORTHEAST LOUISIANA

CITY           SKY/WX    TMP DP  RH WIND       PRES   REMARKS
MONROE         SUNNY     70  49  47 N6        30.11F
TALLULAH       SUNNY     72  50  45 VRB7      30.10F

$$




USA.gov is the U.S. government's official web portal to all federal, state and local government web resources and services.